Time,TemperatureF,DewpointF,PressureIn,WindDirection,WindDirectionDegrees,WindSpeedMPH,WindSpeedGustMPH,Humidity,HourlyPrecipIn,Conditions,Clouds,dailyrainin,SolarRadiationWatts/m^2,SoftwareType,DateUTC
2013-02-04 00:00:00,33.2,26.8,29.90,North,355,7.0,12.0,77,0.00,,,0.01,0,Wunderground v.1.15,2013-02-04 05:00:00,
2013-02-04 00:02:00,33.3,26.5,29.90,North,0,8.0,-999.0,76,0.00,,,0.00,0,Wunderground v.1.15,2013-02-04 05:02:00,
2013-02-04 00:05:00,33.4,26.6,29.90,North,5,8.0,12.0,76,0.00,,,0.00,0,Wunderground v.1.15,2013-02-04 05:05:00,
2013-02-04 00:07:00,33.3,26.5,29.90,North,0,8.0,-999.0,76,0.00,,,0.00,0,Wunderground v.1.15,2013-02-04 05:07:00,
2013-02-04 00:10:00,33.4,27.0,29.90,NNE,15,7.0,7.0,77,0.00,,,0.00,0,Wunderground v.1.15,2013-02-04 05:10:00,
2013-02-04 00:12:00,33.4,27.0,29.90,North,0,6.0,-999.0,77,0.00,,,0.00,0,Wunderground v.1.15,2013-02-04 05:12:00,
2013-02-04 00:15:00,33.4,27.0,29.90,NNW,344,6.0,7.0,77,0.00,,,0.00,0,Wunderground v.1.15,2013-02-04 05:15:00,
2013-02-04 00:17:00,33.4,27.0,29.90,North,0,7.0,-999.0,77,0.00,,,0.00,0,Wunderground v.1.15,2013-02-04 05:17:00,
2013-02-04 00:20:00,33.3,26.9,29.90,North,5,7.0,7.0,77,0.00,,,0.00,0,Wunderground v.1.15,2013-02-04 05:20:00,
2013-02-04 00:22:00,33.4,27.0,29.90,NNW,338,6.0,-999.0,77,0.00,,,0.00,0,Wunderground v.1.15,2013-02-04 05:22:00,
2013-02-04 00:27:00,33.3,26.9,29.90,North,0,5.0,-999.0,77,0.00,,,0.00,0,Wunderground v.1.15,2013-02-04 05:27:00,
2013-02-04 00:30:00,33.3,26.9,29.91,NNE,13,5.0,5.0,77,0.00,,,0.00,0,Wunderground v.1.15,2013-02-04 05:30:00,
2013-02-04 00:32:00,33.3,26.9,29.91,NNE,23,4.0,-999.0,77,0.00,,,0.00,0,Wunderground v.1.15,2013-02-04 05:32:00,
2013-02-04 00:35:00,33.3,26.9,29.91,NNE,21,5.0,7.0,77,0.00,,,0.00,0,Wunderground v.1.15,2013-02-04 05:35:00,
2013-02-04 00:37:00,33.3,26.9,29.91,NNE,23,5.0,-999.0,77,0.00,,,0.00,0,Wunderground v.1.15,2013-02-04 05:37:00,
2013-02-04 00:40:00,33.4,27.0,29.91,ENE,60,5.0,5.0,77,0.00,,,0.00,0,Wunderground v.1.15,2013-02-04 05:40:00,
2013-02-04 00:42:00,33.4,27.0,29.91,NNE,23,5.0,-999.0,77,0.00,,,0.00,0,Wunderground v.1.15,2013-02-04 05:42:00,
2013-02-04 00:47:00,33.1,27.0,29.91,NE,45,12.0,-999.0,78,0.00,,,0.00,0,Wunderground v.1.15,2013-02-04 05:47:00,
2013-02-04 00:50:00,32.4,26.6,29.91,NE,49,10.0,13.0,79,0.00,,,0.00,0,Wunderground v.1.15,2013-02-04 05:50:00,
2013-02-04 00:52:00,32.5,26.7,29.91,NE,45,8.0,-999.0,79,0.00,,,0.00,0,Wunderground v.1.15,2013-02-04 05:52:00,
2013-02-04 00:57:00,32.0,26.5,29.91,NE,45,8.0,-999.0,80,0.00,,,0.00,0,Wunderground v.1.15,2013-02-04 05:57:00,
2013-02-04 01:00:00,31.7,26.5,29.92,NE,36,7.0,8.0,81,0.00,,,0.00,0,Wunderground v.1.15,2013-02-04 06:00:00,
2013-02-04 01:02:00,31.7,26.5,29.91,NE,45,7.0,-999.0,81,0.00,,,0.00,0,Wunderground v.1.15,2013-02-04 06:02:00,
2013-02-04 01:07:00,31.6,26.7,29.92,NE,45,6.0,-999.0,82,0.00,,,0.00,0,Wunderground v.1.15,2013-02-04 06:07:00,
2013-02-04 01:10:00,31.6,27.0,29.92,NE,55,5.0,8.0,83,0.00,,,0.00,0,Wunderground v.1.15,2013-02-04 06:10:00,
2013-02-04 01:12:00,31.6,27.0,29.92,NE,45,5.0,-999.0,83,0.00,,,0.00,0,Wunderground v.1.15,2013-02-04 06:12:00,
2013-02-04 01:15:00,31.6,27.0,29.92,North,11,5.0,9.0,83,0.00,,,0.00,0,Wunderground v.1.15,2013-02-04 06:15:00,
2013-02-04 01:17:00,31.6,27.0,29.92,NE,45,5.0,-999.0,83,0.00,,,0.00,0,Wunderground v.1.15,2013-02-04 06:17:00,
2013-02-04 01:22:00,31.6,27.0,29.92,NNE,23,6.0,-999.0,83,0.00,,,0.00,0,Wunderground v.1.15,2013-02-04 06:22:00,
2013-02-04 01:26:00,31.7,27.1,29.92,NE,45,6.0,6.0,83,0.00,,,0.00,0,Wunderground v.1.15,2013-02-04 06:26:00,
2013-02-04 01:27:00,31.7,27.1,29.93,NE,45,5.0,-999.0,83,0.00,,,0.00,0,Wunderground v.1.15,2013-02-04 06:27:00,
2013-02-04 01:32:00,31.7,27.1,29.93,NE,45,6.0,-999.0,83,0.00,,,0.00,0,Wunderground v.1.15,2013-02-04 06:32:00,
2013-02-04 01:35:00,31.7,26.8,29.93,ESE,102,6.0,7.0,82,0.00,,,0.00,0,Wunderground v.1.15,2013-02-04 06:35:00,
2013-02-04 01:37:00,31.7,26.8,29.93,NE,45,6.0,-999.0,82,0.00,,,0.00,0,Wunderground v.1.15,2013-02-04 06:37:00,
2013-02-04 01:42:00,31.7,26.2,29.93,NE,45,6.0,-999.0,80,0.00,,,0.00,0,Wunderground v.1.15,2013-02-04 06:42:00,
2013-02-04 01:45:00,31.7,25.0,29.93,North,9,7.0,9.0,76,0.00,,,0.00,0,Wunderground v.1.15,2013-02-04 06:45:00,
2013-02-04 01:47:00,31.7,25.3,29.93,NE,45,9.0,-999.0,77,0.00,,,0.00,0,Wunderground v.1.15,2013-02-04 06:47:00,
2013-02-04 01:52:00,31.7,24.4,29.93,NE,45,9.0,-999.0,74,0.00,,,0.00,0,Wunderground v.1.15,2013-02-04 06:52:00,
2013-02-04 01:55:00,31.6,24.6,29.94,NE,44,9.0,10.0,75,0.00,,,0.00,0,Wunderground v.1.15,2013-02-04 06:55:00,
2013-02-04 01:57:00,31.6,24.6,29.94,NE,45,9.0,-999.0,75,0.00,,,0.00,0,Wunderground v.1.15,2013-02-04 06:57:00,
2013-02-04 02:02:00,31.7,24.0,29.94,NE,45,10.0,-999.0,73,0.00,,,0.00,0,Wunderground v.1.15,2013-02-04 07:02:00,
2013-02-04 02:05:00,31.7,23.0,29.94,NE,41,8.0,11.0,70,0.00,,,0.00,0,Wunderground v.1.15,2013-02-04 07:05:00,
2013-02-04 02:07:00,31.7,23.0,29.94,NE,45,7.0,-999.0,70,0.00,,,0.00,0,Wunderground v.1.15,2013-02-04 07:07:00,
2013-02-04 02:10:00,31.7,22.3,29.94,NNE,28,9.0,9.0,68,0.00,,,0.00,0,Wunderground v.1.15,2013-02-04 07:10:00,
2013-02-04 02:12:00,31.7,22.3,29.94,NE,45,11.0,-999.0,68,0.00,,,0.00,0,Wunderground v.1.15,2013-02-04 07:12:00,
2013-02-04 02:17:00,31.7,22.0,29.94,NE,45,9.0,-999.0,67,0.00,,,0.00,0,Wunderground v.1.15,2013-02-04 07:17:00,
2013-02-04 02:20:00,31.6,21.5,29.95,NE,40,8.0,8.0,66,0.00,,,0.00,0,Wunderground v.1.15,2013-02-04 07:20:00,
2013-02-04 02:22:00,31.6,21.5,29.94,NE,45,7.0,-999.0,66,0.00,,,0.00,0,Wunderground v.1.15,2013-02-04 07:22:00,
2013-02-04 02:27:00,31.5,21.1,29.95,NE,45,7.0,-999.0,65,0.00,,,0.00,0,Wunderground v.1.15,2013-02-04 07:27:00,
2013-02-04 02:30:00,31.5,20.7,29.95,NE,53,8.0,8.0,64,0.00,,,0.00,0,Wunderground v.1.15,2013-02-04 07:30:00,
2013-02-04 02:32:00,31.5,20.7,29.95,NE,45,10.0,-999.0,64,0.00,,,0.00,0,Wunderground v.1.15,2013-02-04 07:32:00,
2013-02-04 02:37:00,31.4,20.2,29.96,NE,45,10.0,-999.0,63,0.00,,,0.00,0,Wunderground v.1.15,2013-02-04 07:37:00,
2013-02-04 02:40:00,31.2,19.3,29.95,NE,52,10.0,10.0,61,0.00,,,0.00,0,Wunderground v.1.15,2013-02-04 07:40:00,
2013-02-04 02:42:00,31.2,19.3,29.95,NE,45,10.0,-999.0,61,0.00,,,0.00,0,Wunderground v.1.15,2013-02-04 07:42:00,
2013-02-04 02:47:00,31.1,18.8,29.96,NE,45,11.0,-999.0,60,0.00,,,0.00,0,Wunderground v.1.15,2013-02-04 07:47:00,
2013-02-04 02:50:00,30.9,18.2,29.96,NE,51,10.0,10.0,59,0.00,,,0.00,0,Wunderground v.1.15,2013-02-04 07:50:00,
2013-02-04 02:52:00,30.9,18.2,29.96,NE,45,9.0,-999.0,59,0.00,,,0.00,0,Wunderground v.1.15,2013-02-04 07:52:00,
2013-02-04 02:57:00,30.8,18.1,29.97,NE,45,11.0,-999.0,59,0.00,,,0.00,0,Wunderground v.1.15,2013-02-04 07:57:00,
2013-02-04 03:00:00,30.7,18.1,29.97,NNE,28,9.0,13.0,59,0.00,,,0.00,0,Wunderground v.1.15,2013-02-04 08:00:00,
2013-02-04 03:02:00,30.7,18.1,29.97,NE,45,8.0,-999.0,59,0.00,,,0.00,0,Wunderground v.1.15,2013-02-04 08:02:00,
2013-02-04 03:07:00,30.6,17.6,29.97,NE,45,9.0,-999.0,58,0.00,,,0.00,0,Wunderground v.1.15,2013-02-04 08:07:00,
2013-02-04 03:10:00,30.4,17.4,29.97,NNE,28,8.0,14.0,58,0.00,,,0.00,0,Wunderground v.1.15,2013-02-04 08:10:00,
2013-02-04 03:12:00,30.4,17.4,29.97,NE,45,8.0,-999.0,58,0.00,,,0.00,0,Wunderground v.1.15,2013-02-04 08:12:00,
2013-02-04 03:15:00,30.3,17.3,29.97,NNE,32,8.0,14.0,58,0.00,,,0.00,0,Wunderground v.1.15,2013-02-04 08:15:00,
2013-02-04 03:17:00,30.3,17.3,29.97,ENE,68,9.0,-999.0,58,0.00,,,0.00,0,Wunderground v.1.15,2013-02-04 08:17:00,
2013-02-04 03:22:00,30.2,17.2,29.97,NE,45,8.0,-999.0,58,0.00,,,0.00,0,Wunderground v.1.15,2013-02-04 08:22:00,
2013-02-04 03:25:00,30.1,17.1,29.97,NE,40,8.0,9.0,58,0.00,,,0.00,0,Wunderground v.1.15,2013-02-04 08:25:00,
2013-02-04 03:27:00,30.1,17.1,29.97,NE,45,7.0,-999.0,58,0.00,,,0.00,0,Wunderground v.1.15,2013-02-04 08:27:00,
2013-02-04 03:32:00,29.9,16.9,29.97,NE,45,7.0,-999.0,58,0.00,,,0.00,0,Wunderground v.1.15,2013-02-04 08:32:00,
2013-02-04 03:35:00,29.9,16.9,29.98,NE,50,7.0,7.0,58,0.00,,,0.00,0,Wunderground v.1.15,2013-02-04 08:35:00,
2013-02-04 03:37:00,29.9,16.9,29.98,NE,45,7.0,-999.0,58,0.00,,,0.00,0,Wunderground v.1.15,2013-02-04 08:37:00,
2013-02-04 03:42:00,29.8,17.2,29.98,ENE,68,6.0,-999.0,59,0.00,,,0.00,0,Wunderground v.1.15,2013-02-04 08:42:00,
2013-02-04 03:45:00,29.7,17.1,29.98,NE,44,7.0,8.0,59,0.00,,,0.00,0,Wunderground v.1.15,2013-02-04 08:45:00,
2013-02-04 03:47:00,29.7,17.1,29.98,East,90,7.0,-999.0,59,0.00,,,0.00,0,Wunderground v.1.15,2013-02-04 08:47:00,
2013-02-04 03:52:00,29.6,17.0,29.98,NE,45,8.0,-999.0,59,0.00,,,0.00,0,Wunderground v.1.15,2013-02-04 08:52:00,
2013-02-04 03:55:00,29.6,17.0,29.98,ENE,63,8.0,14.0,59,0.00,,,0.00,0,Wunderground v.1.15,2013-02-04 08:55:00,
2013-02-04 03:57:00,29.6,17.0,29.98,NE,45,8.0,-999.0,59,0.00,,,0.00,0,Wunderground v.1.15,2013-02-04 08:57:00,
2013-02-04 04:02:00,29.6,17.0,29.98,ENE,68,8.0,-999.0,59,0.00,,,0.00,0,Wunderground v.1.15,2013-02-04 09:02:00,
2013-02-04 04:05:00,29.5,16.9,29.98,NNE,33,8.0,8.0,59,0.00,,,0.00,0,Wunderground v.1.15,2013-02-04 09:05:00,
2013-02-04 04:07:00,29.5,16.9,29.98,NE,45,8.0,-999.0,59,0.00,,,0.00,0,Wunderground v.1.15,2013-02-04 09:07:00,
2013-02-04 04:11:00,29.4,16.8,29.98,NE,43,7.0,8.0,59,0.00,,,0.00,0,Wunderground v.1.15,2013-02-04 09:11:00,
2013-02-04 04:12:00,29.4,16.8,29.98,NE,45,7.0,-999.0,59,0.00,,,0.00,0,Wunderground v.1.15,2013-02-04 09:12:00,
2013-02-04 04:17:00,29.3,16.7,29.99,NE,45,7.0,-999.0,59,0.00,,,0.00,0,Wunderground v.1.15,2013-02-04 09:17:00,
2013-02-04 04:21:00,29.3,17.1,29.99,NE,44,7.0,7.0,60,0.00,,,0.00,0,Wunderground v.1.15,2013-02-04 09:21:00,
2013-02-04 04:22:00,29.3,17.1,29.98,NE,45,7.0,-999.0,60,0.00,,,0.00,0,Wunderground v.1.15,2013-02-04 09:22:00,
2013-02-04 04:27:00,29.2,17.0,29.98,NE,45,6.0,-999.0,60,0.00,,,0.00,0,Wunderground v.1.15,2013-02-04 09:27:00,
2013-02-04 04:30:00,29.1,16.9,29.99,NE,36,6.0,6.0,60,0.00,,,0.00,0,Wunderground v.1.15,2013-02-04 09:30:00,
2013-02-04 04:32:00,29.1,16.9,29.99,NE,45,6.0,-999.0,60,0.00,,,0.00,0,Wunderground v.1.15,2013-02-04 09:32:00,
2013-02-04 04:37:00,29.0,17.2,29.99,NE,45,6.0,-999.0,61,0.00,,,0.00,0,Wunderground v.1.15,2013-02-04 09:37:00,
2013-02-04 04:40:00,28.9,17.1,29.99,NE,42,5.0,6.0,61,0.00,,,0.00,0,Wunderground v.1.15,2013-02-04 09:40:00,
2013-02-04 04:42:00,28.9,17.1,29.99,NE,45,4.0,-999.0,61,0.00,,,0.00,0,Wunderground v.1.15,2013-02-04 09:42:00,
2013-02-04 04:47:00,28.9,17.5,30.00,NE,45,6.0,-999.0,62,0.00,,,0.00,0,Wunderground v.1.15,2013-02-04 09:47:00,
2013-02-04 04:50:00,28.8,17.4,30.00,ENE,63,6.0,7.0,62,0.00,,,0.00,0,Wunderground v.1.15,2013-02-04 09:50:00,
2013-02-04 04:52:00,28.8,17.4,30.00,NE,45,5.0,-999.0,62,0.00,,,0.00,0,Wunderground v.1.15,2013-02-04 09:52:00,
2013-02-04 04:57:00,28.7,17.3,30.00,NE,45,5.0,-999.0,62,0.00,,,0.00,0,Wunderground v.1.15,2013-02-04 09:57:00,
2013-02-04 05:00:00,28.6,17.6,30.00,NE,53,5.0,5.0,63,0.00,,,0.00,0,Wunderground v.1.15,2013-02-04 10:00:00,
2013-02-04 05:02:00,28.6,17.6,30.00,NE,45,5.0,-999.0,63,0.00,,,0.00,0,Wunderground v.1.15,2013-02-04 10:02:00,
2013-02-04 05:07:00,28.5,17.5,30.00,NE,45,6.0,-999.0,63,0.00,,,0.00,0,Wunderground v.1.15,2013-02-04 10:07:00,
2013-02-04 05:10:00,28.4,17.4,30.01,NE,47,5.0,8.0,63,0.00,,,0.00,0,Wunderground v.1.15,2013-02-04 10:10:00,
2013-02-04 05:12:00,28.4,17.4,30.01,NE,45,4.0,-999.0,63,0.00,,,0.00,0,Wunderground v.1.15,2013-02-04 10:12:00,
2013-02-04 05:17:00,28.3,17.7,30.01,NE,45,5.0,-999.0,64,0.00,,,0.00,0,Wunderground v.1.15,2013-02-04 10:17:00,
2013-02-04 05:20:00,28.2,17.6,30.01,NE,55,5.0,5.0,64,0.00,,,0.00,0,Wunderground v.1.15,2013-02-04 10:20:00,
2013-02-04 05:22:00,28.2,17.6,30.01,NE,45,4.0,-999.0,64,0.00,,,0.00,0,Wunderground v.1.15,2013-02-04 10:22:00,
2013-02-04 05:26:00,28.1,17.5,30.01,NE,34,5.0,6.0,64,0.00,,,0.00,0,Wunderground v.1.15,2013-02-04 10:26:00,
2013-02-04 05:27:00,28.1,17.5,30.01,NE,45,6.0,-999.0,64,0.00,,,0.00,0,Wunderground v.1.15,2013-02-04 10:27:00,
2013-02-04 05:32:00,28.1,17.5,30.01,NE,45,6.0,-999.0,64,0.00,,,0.00,0,Wunderground v.1.15,2013-02-04 10:32:00,
2013-02-04 05:35:00,28.0,17.0,30.01,NNE,28,6.0,6.0,63,0.00,,,0.00,0,Wunderground v.1.15,2013-02-04 10:35:00,
2013-02-04 05:37:00,28.0,17.0,30.01,NE,45,7.0,-999.0,63,0.00,,,0.00,0,Wunderground v.1.15,2013-02-04 10:37:00,
2013-02-04 05:42:00,28.0,16.6,30.01,NNE,23,5.0,-999.0,62,0.00,,,0.00,0,Wunderground v.1.15,2013-02-04 10:42:00,
2013-02-04 05:46:00,28.0,16.3,30.01,NE,46,7.0,8.0,61,0.00,,,0.00,0,Wunderground v.1.15,2013-02-04 10:46:00,
2013-02-04 05:47:00,28.0,16.6,30.01,NE,45,8.0,-999.0,62,0.00,,,0.00,0,Wunderground v.1.15,2013-02-04 10:47:00,
2013-02-04 05:52:00,28.0,16.3,30.01,NE,45,7.0,-999.0,61,0.00,,,0.00,0,Wunderground v.1.15,2013-02-04 10:52:00,
2013-02-04 05:55:00,28.0,15.9,30.01,ENE,62,7.0,10.0,60,0.00,,,0.00,0,Wunderground v.1.15,2013-02-04 10:55:00,
2013-02-04 05:57:00,28.0,15.9,30.01,NE,45,8.0,-999.0,60,0.00,,,0.00,0,Wunderground v.1.15,2013-02-04 10:57:00,
2013-02-04 06:02:00,27.9,15.8,30.02,ENE,68,7.0,-999.0,60,0.00,,,0.00,0,Wunderground v.1.15,2013-02-04 11:02:00,
2013-02-04 06:05:00,27.9,15.4,30.02,NE,56,7.0,12.0,59,0.00,,,0.00,0,Wunderground v.1.15,2013-02-04 11:05:00,
2013-02-04 06:07:00,27.9,15.4,30.02,NNE,23,8.0,-999.0,59,0.00,,,0.00,0,Wunderground v.1.15,2013-02-04 11:07:00,
2013-02-04 06:11:00,27.8,15.3,30.02,NE,54,7.0,7.0,59,0.00,,,0.00,0,Wunderground v.1.15,2013-02-04 11:11:00,
2013-02-04 06:12:00,27.8,15.3,30.02,ENE,68,7.0,-999.0,59,0.00,,,0.00,0,Wunderground v.1.15,2013-02-04 11:12:00,
2013-02-04 06:17:00,27.8,15.3,30.02,NE,45,6.0,-999.0,59,0.00,,,0.00,0,Wunderground v.1.15,2013-02-04 11:17:00,
2013-02-04 06:20:00,27.6,14.7,30.02,NE,45,6.0,10.0,58,0.00,,,0.00,0,Wunderground v.1.15,2013-02-04 11:20:00,
2013-02-04 06:22:00,27.7,14.8,30.03,NE,45,6.0,-999.0,58,0.00,,,0.00,0,Wunderground v.1.15,2013-02-04 11:22:00,
2013-02-04 06:27:00,27.6,14.7,30.03,NE,45,7.0,-999.0,58,0.00,,,0.00,0,Wunderground v.1.15,2013-02-04 11:27:00,
2013-02-04 06:30:00,27.6,14.3,30.04,NE,46,8.0,10.0,57,0.00,,,0.00,0,Wunderground v.1.15,2013-02-04 11:30:00,
2013-02-04 06:32:00,27.6,14.3,30.04,NE,45,9.0,-999.0,57,0.00,,,0.00,0,Wunderground v.1.15,2013-02-04 11:32:00,
2013-02-04 06:37:00,27.6,13.9,30.04,ENE,68,7.0,-999.0,56,0.00,,,0.00,0,Wunderground v.1.15,2013-02-04 11:37:00,
2013-02-04 06:40:00,27.5,14.2,30.05,NE,56,7.0,7.0,57,0.00,,,0.00,0,Wunderground v.1.15,2013-02-04 11:40:00,
2013-02-04 06:42:00,27.5,14.2,30.04,NE,45,6.0,-999.0,57,0.00,,,0.00,0,Wunderground v.1.15,2013-02-04 11:42:00,
2013-02-04 06:47:00,27.4,14.1,30.05,NE,45,5.0,-999.0,57,0.00,,,0.00,0,Wunderground v.1.15,2013-02-04 11:47:00,
2013-02-04 06:50:00,27.3,14.1,30.05,NE,40,5.0,5.0,57,0.00,,,0.00,0,Wunderground v.1.15,2013-02-04 11:50:00,
2013-02-04 06:52:00,27.3,14.5,30.05,NE,45,5.0,-999.0,58,0.00,,,0.00,0,Wunderground v.1.15,2013-02-04 11:52:00,
2013-02-04 06:56:00,27.2,14.4,30.06,NE,38,5.0,6.0,58,0.00,,,0.00,0,Wunderground v.1.15,2013-02-04 11:56:00,
2013-02-04 06:57:00,27.2,14.4,30.06,NE,45,5.0,-999.0,58,0.00,,,0.00,0,Wunderground v.1.15,2013-02-04 11:57:00,
2013-02-04 07:02:00,27.1,14.3,30.06,NE,45,4.0,-999.0,58,0.00,,,0.00,0,Wunderground v.1.15,2013-02-04 12:02:00,
2013-02-04 07:05:00,27.0,14.6,30.07,NE,38,4.0,5.0,59,0.00,,,0.00,5,Wunderground v.1.15,2013-02-04 12:05:00,
2013-02-04 07:07:00,27.0,14.6,30.07,NE,45,3.0,-999.0,59,0.00,,,0.00,3,Wunderground v.1.15,2013-02-04 12:07:00,
2013-02-04 07:10:00,26.9,14.9,30.07,NE,38,4.0,5.0,60,0.00,,,0.00,7,Wunderground v.1.15,2013-02-04 12:10:00,
2013-02-04 07:12:00,26.9,14.5,30.06,NE,45,4.0,-999.0,59,0.00,,,0.00,7,Wunderground v.1.15,2013-02-04 12:12:00,
2013-02-04 07:17:00,26.7,14.7,30.07,NNE,23,5.0,-999.0,60,0.00,,,0.00,10,Wunderground v.1.15,2013-02-04 12:17:00,
2013-02-04 07:20:00,26.7,15.0,30.07,NNE,15,5.0,6.0,61,0.00,,,0.00,14,Wunderground v.1.15,2013-02-04 12:20:00,
2013-02-04 07:22:00,26.6,14.9,30.07,North,0,6.0,-999.0,61,0.00,,,0.00,13,Wunderground v.1.15,2013-02-04 12:22:00,
2013-02-04 07:26:00,26.6,15.3,30.07,NNE,23,6.0,6.0,62,0.00,,,0.00,19,Wunderground v.1.15,2013-02-04 12:26:00,
2013-02-04 07:27:00,26.6,15.3,30.08,NNE,23,6.0,-999.0,62,0.00,,,0.00,17,Wunderground v.1.15,2013-02-04 12:27:00,
2013-02-04 07:32:00,26.6,15.3,30.08,NNE,23,6.0,-999.0,62,0.00,,,0.00,21,Wunderground v.1.15,2013-02-04 12:32:00,
2013-02-04 07:35:00,26.7,15.4,30.08,NE,46,6.0,7.0,62,0.00,,,0.00,28,Wunderground v.1.15,2013-02-04 12:35:00,
2013-02-04 07:37:00,26.7,15.4,30.08,NNE,23,6.0,-999.0,62,0.00,,,0.00,26,Wunderground v.1.15,2013-02-04 12:37:00,
2013-02-04 07:42:00,26.8,15.5,30.08,NNE,23,6.0,-999.0,62,0.00,,,0.00,34,Wunderground v.1.15,2013-02-04 12:42:00,
2013-02-04 07:45:00,26.9,15.6,30.09,NNE,26,6.0,7.0,62,0.00,,,0.00,47,Wunderground v.1.15,2013-02-04 12:45:00,
2013-02-04 07:47:00,26.9,15.6,30.09,NNE,23,5.0,-999.0,62,0.00,,,0.00,43,Wunderground v.1.15,2013-02-04 12:47:00,
2013-02-04 07:51:00,27.0,15.3,30.09,NE,40,5.0,12.0,61,0.00,,,0.00,60,Wunderground v.1.15,2013-02-04 12:51:00,
2013-02-04 07:52:00,27.0,15.3,30.09,NNE,23,6.0,-999.0,61,0.00,,,0.00,54,Wunderground v.1.15,2013-02-04 12:52:00,
2013-02-04 07:57:00,27.1,15.0,30.10,NNE,23,8.0,-999.0,60,0.00,,,0.00,69,Wunderground v.1.15,2013-02-04 12:57:00,
2013-02-04 08:00:00,27.3,14.8,30.10,North,5,8.0,16.0,59,0.00,,,0.00,88,Wunderground v.1.15,2013-02-04 13:00:00,
2013-02-04 08:02:00,27.3,14.8,30.10,North,0,8.0,-999.0,59,0.00,,,0.00,84,Wunderground v.1.15,2013-02-04 13:02:00,
2013-02-04 08:05:00,27.4,14.5,30.10,NNE,27,8.0,16.0,58,0.00,,,0.00,102,Wunderground v.1.15,2013-02-04 13:05:00,
2013-02-04 08:07:00,27.4,14.5,30.10,NNE,23,8.0,-999.0,58,0.00,,,0.00,98,Wunderground v.1.15,2013-02-04 13:07:00,
2013-02-04 08:11:00,27.4,14.1,30.10,NE,38,8.0,12.0,57,0.00,,,0.00,134,Wunderground v.1.15,2013-02-04 13:11:00,
2013-02-04 08:12:00,27.4,14.1,30.10,NNE,23,8.0,-999.0,57,0.00,,,0.00,115,Wunderground v.1.15,2013-02-04 13:12:00,
2013-02-04 08:17:00,27.6,13.9,30.10,NE,45,9.0,-999.0,56,0.00,,,0.00,121,Wunderground v.1.15,2013-02-04 13:17:00,
2013-02-04 08:20:00,27.7,13.6,30.11,NNE,27,9.0,9.0,55,0.00,,,0.00,149,Wunderground v.1.15,2013-02-04 13:20:00,
2013-02-04 08:22:00,27.6,13.5,30.11,NE,45,8.0,-999.0,55,0.00,,,0.00,142,Wunderground v.1.15,2013-02-04 13:22:00,
2013-02-04 08:27:00,27.8,13.7,30.11,NE,45,8.0,-999.0,55,0.00,,,0.00,147,Wunderground v.1.15,2013-02-04 13:27:00,
2013-02-04 08:30:00,27.9,13.8,30.11,North,9,8.0,8.0,55,0.00,,,0.00,192,Wunderground v.1.15,2013-02-04 13:30:00,
2013-02-04 08:32:00,27.9,13.8,30.11,NE,45,8.0,-999.0,55,0.00,,,0.00,183,Wunderground v.1.15,2013-02-04 13:32:00,
2013-02-04 08:36:00,28.0,13.9,30.11,NNE,21,8.0,8.0,55,0.00,,,0.00,218,Wunderground v.1.15,2013-02-04 13:36:00,
2013-02-04 08:37:00,28.0,13.9,30.11,NNE,23,8.0,-999.0,55,0.00,,,0.00,192,Wunderground v.1.15,2013-02-04 13:37:00,
2013-02-04 08:42:00,28.0,13.9,30.11,NNE,23,9.0,-999.0,55,0.00,,,0.00,199,Wunderground v.1.15,2013-02-04 13:42:00,
2013-02-04 08:45:00,28.2,14.1,30.11,ENE,59,9.0,10.0,55,0.00,,,0.00,202,Wunderground v.1.15,2013-02-04 13:45:00,
2013-02-04 08:47:00,28.2,14.1,30.11,NE,45,7.0,-999.0,55,0.00,,,0.00,210,Wunderground v.1.15,2013-02-04 13:47:00,
2013-02-04 08:50:00,28.5,13.5,30.11,North,10,7.0,7.0,53,0.00,,,0.00,237,Wunderground v.1.15,2013-02-04 13:50:00,
2013-02-04 08:52:00,28.5,13.9,30.11,ENE,68,6.0,-999.0,54,0.00,,,0.00,218,Wunderground v.1.15,2013-02-04 13:52:00,
2013-02-04 08:56:00,28.5,13.5,30.11,NE,42,7.0,8.0,53,0.00,,,0.00,236,Wunderground v.1.15,2013-02-04 13:56:00,
2013-02-04 08:57:00,28.5,13.5,30.11,NE,45,8.0,-999.0,53,0.00,,,0.00,219,Wunderground v.1.15,2013-02-04 13:57:00,
2013-02-04 09:02:00,28.5,13.1,30.11,NE,45,8.0,-999.0,52,0.00,,,0.00,243,Wunderground v.1.15,2013-02-04 14:02:00,
2013-02-04 09:05:00,28.5,13.1,30.12,NE,41,9.0,11.0,52,0.00,,,0.00,264,Wunderground v.1.15,2013-02-04 14:05:00,
2013-02-04 09:07:00,28.5,13.1,30.11,NNE,23,10.0,-999.0,52,0.00,,,0.00,247,Wunderground v.1.15,2013-02-04 14:07:00,
2013-02-04 09:12:00,28.7,12.8,30.12,NE,45,9.0,-999.0,51,0.00,,,0.00,242,Wunderground v.1.15,2013-02-04 14:12:00,
2013-02-04 09:15:00,28.9,13.0,30.11,NNE,23,10.0,14.0,51,0.00,,,0.00,269,Wunderground v.1.15,2013-02-04 14:15:00,
2013-02-04 09:17:00,28.9,13.0,30.12,NNE,23,11.0,-999.0,51,0.00,,,0.00,260,Wunderground v.1.15,2013-02-04 14:17:00,
2013-02-04 09:22:00,28.9,12.6,30.12,NNE,23,12.0,-999.0,50,0.00,,,0.00,283,Wunderground v.1.15,2013-02-04 14:22:00,
2013-02-04 09:25:00,28.8,12.5,30.12,NE,42,12.0,12.0,50,0.00,,,0.00,285,Wunderground v.1.15,2013-02-04 14:25:00,
2013-02-04 09:27:00,28.8,12.5,30.12,NNE,23,12.0,-999.0,50,0.00,,,0.00,280,Wunderground v.1.15,2013-02-04 14:27:00,
2013-02-04 09:32:00,28.7,11.9,30.12,NNE,23,11.0,-999.0,49,0.00,,,0.00,262,Wunderground v.1.15,2013-02-04 14:32:00,
2013-02-04 09:35:00,28.9,12.1,30.12,North,5,9.0,11.0,49,0.00,,,0.00,250,Wunderground v.1.15,2013-02-04 14:35:00,
2013-02-04 09:37:00,28.9,12.1,30.12,NE,45,8.0,-999.0,49,0.00,,,0.00,295,Wunderground v.1.15,2013-02-04 14:37:00,
2013-02-04 09:41:00,29.0,12.2,30.11,NE,42,8.0,8.0,49,0.00,,,0.00,271,Wunderground v.1.15,2013-02-04 14:41:00,
2013-02-04 09:42:00,29.1,12.3,30.11,NE,45,7.0,-999.0,49,0.00,,,0.00,265,Wunderground v.1.15,2013-02-04 14:42:00,
2013-02-04 09:47:00,29.1,12.3,30.11,NE,45,7.0,-999.0,49,0.00,,,0.00,269,Wunderground v.1.15,2013-02-04 14:47:00,
2013-02-04 09:51:00,29.2,12.8,30.11,NE,39,8.0,8.0,50,0.00,,,0.00,283,Wunderground v.1.15,2013-02-04 14:51:00,
2013-02-04 09:52:00,29.2,12.8,30.11,NE,45,8.0,-999.0,50,0.00,,,0.00,287,Wunderground v.1.15,2013-02-04 14:52:00,
2013-02-04 09:57:00,29.4,13.0,30.11,NNE,23,7.0,-999.0,50,0.00,,,0.00,281,Wunderground v.1.15,2013-02-04 14:57:00,
2013-02-04 10:00:00,29.4,13.0,30.11,East,82,8.0,10.0,50,0.00,,,0.00,290,Wunderground v.1.15,2013-02-04 15:00:00,
2013-02-04 10:02:00,29.4,13.0,30.11,NNE,23,8.0,-999.0,50,0.00,,,0.00,288,Wunderground v.1.15,2013-02-04 15:02:00,
2013-02-04 10:07:00,29.4,13.0,30.10,NNE,23,8.0,-999.0,50,0.00,,,0.00,285,Wunderground v.1.15,2013-02-04 15:07:00,
2013-02-04 10:10:00,29.4,13.0,30.11,NNE,24,9.0,9.0,50,0.00,,,0.00,265,Wunderground v.1.15,2013-02-04 15:10:00,
2013-02-04 10:12:00,29.4,13.0,30.11,NNE,23,10.0,-999.0,50,0.00,,,0.00,272,Wunderground v.1.15,2013-02-04 15:12:00,
2013-02-04 10:17:00,29.6,13.7,30.11,NNE,23,5.0,-999.0,51,0.00,,,0.00,274,Wunderground v.1.15,2013-02-04 15:17:00,
2013-02-04 10:20:00,29.5,13.1,30.11,NE,34,7.0,7.0,50,0.00,,,0.00,279,Wunderground v.1.15,2013-02-04 15:20:00,
2013-02-04 10:22:00,29.5,13.1,30.11,NE,45,9.0,-999.0,50,0.00,,,0.00,292,Wunderground v.1.15,2013-02-04 15:22:00,
2013-02-04 10:27:00,29.7,13.8,30.11,NNE,23,7.0,-999.0,51,0.00,,,0.00,277,Wunderground v.1.15,2013-02-04 15:27:00,
2013-02-04 10:30:00,29.8,13.9,30.11,North,350,9.0,12.0,51,0.00,,,0.00,330,Wunderground v.1.15,2013-02-04 15:30:00,
2013-02-04 10:32:00,29.8,13.9,30.11,North,0,10.0,-999.0,51,0.00,,,0.00,304,Wunderground v.1.15,2013-02-04 15:32:00,
2013-02-04 10:36:00,30.1,14.1,30.10,NNE,26,9.0,12.0,51,0.00,,,0.00,353,Wunderground v.1.15,2013-02-04 15:36:00,
2013-02-04 10:37:00,30.1,14.1,30.10,NNE,23,7.0,-999.0,51,0.00,,,0.00,347,Wunderground v.1.15,2013-02-04 15:37:00,
2013-02-04 10:42:00,30.2,13.8,30.10,NNE,23,7.0,-999.0,50,0.00,,,0.00,346,Wunderground v.1.15,2013-02-04 15:42:00,
2013-02-04 10:46:00,30.4,14.4,30.11,NNW,348,7.0,12.0,51,0.00,,,0.00,330,Wunderground v.1.15,2013-02-04 15:46:00,
2013-02-04 10:47:00,30.4,14.4,30.11,NE,45,7.0,-999.0,51,0.00,,,0.00,321,Wunderground v.1.15,2013-02-04 15:47:00,
2013-02-04 10:52:00,30.5,14.0,30.11,North,0,9.0,-999.0,50,0.00,,,0.00,353,Wunderground v.1.15,2013-02-04 15:52:00,
2013-02-04 10:56:00,30.4,14.0,30.10,NNE,28,9.0,9.0,50,0.00,,,0.00,355,Wunderground v.1.15,2013-02-04 15:56:00,
2013-02-04 10:57:00,30.4,14.0,30.10,NNE,23,9.0,-999.0,50,0.00,,,0.00,346,Wunderground v.1.15,2013-02-04 15:57:00,
2013-02-04 11:02:00,30.3,14.3,30.10,NNE,23,7.0,-999.0,51,0.00,,,0.00,347,Wunderground v.1.15,2013-02-04 16:02:00,
2013-02-04 11:06:00,30.3,13.9,30.09,North,9,7.0,8.0,50,0.00,,,0.00,299,Wunderground v.1.15,2013-02-04 16:06:00,
2013-02-04 11:07:00,30.4,14.0,30.09,North,0,7.0,-999.0,50,0.00,,,0.00,313,Wunderground v.1.15,2013-02-04 16:07:00,
2013-02-04 11:12:00,30.3,13.9,30.09,NE,45,7.0,-999.0,50,0.00,,,0.00,305,Wunderground v.1.15,2013-02-04 16:12:00,
2013-02-04 11:16:00,30.2,13.8,30.09,NNE,29,7.0,14.0,50,0.00,,,0.00,301,Wunderground v.1.15,2013-02-04 16:16:00,
2013-02-04 11:17:00,30.2,13.8,30.09,NE,45,7.0,-999.0,50,0.00,,,0.00,297,Wunderground v.1.15,2013-02-04 16:17:00,
2013-02-04 11:22:00,30.8,14.3,30.09,NNE,23,6.0,-999.0,50,0.00,,,0.00,308,Wunderground v.1.15,2013-02-04 16:22:00,
2013-02-04 11:26:00,30.7,13.3,30.09,North,5,9.0,13.0,48,0.00,,,0.00,313,Wunderground v.1.15,2013-02-04 16:26:00,
2013-02-04 11:27:00,30.7,13.3,30.09,NNE,23,11.0,-999.0,48,0.00,,,0.00,320,Wunderground v.1.15,2013-02-04 16:27:00,
2013-02-04 11:32:00,30.7,13.8,30.09,NNE,23,7.0,-999.0,49,0.00,,,0.00,322,Wunderground v.1.15,2013-02-04 16:32:00,
2013-02-04 11:36:00,30.9,13.5,30.08,NNE,24,8.0,9.0,48,0.00,,,0.00,343,Wunderground v.1.15,2013-02-04 16:36:00,
2013-02-04 11:37:00,30.9,13.5,30.09,NNE,23,9.0,-999.0,48,0.00,,,0.00,338,Wunderground v.1.15,2013-02-04 16:37:00,
2013-02-04 11:42:00,31.0,14.0,30.08,NNE,23,11.0,-999.0,49,0.00,,,0.00,326,Wunderground v.1.15,2013-02-04 16:42:00,
2013-02-04 11:46:00,31.2,14.2,30.08,ENE,57,9.0,10.0,49,0.00,,,0.00,332,Wunderground v.1.15,2013-02-04 16:46:00,
2013-02-04 11:47:00,31.2,14.2,30.08,NNE,23,7.0,-999.0,49,0.00,,,0.00,323,Wunderground v.1.15,2013-02-04 16:47:00,
2013-02-04 11:52:00,31.5,14.0,30.07,NE,45,7.0,-999.0,48,0.00,,,0.00,323,Wunderground v.1.15,2013-02-04 16:52:00,
2013-02-04 11:55:00,31.4,14.4,30.07,NNE,21,8.0,8.0,49,0.00,,,0.00,357,Wunderground v.1.15,2013-02-04 16:55:00,
2013-02-04 11:57:00,31.4,14.4,30.07,NNE,23,8.0,-999.0,49,0.00,,,0.00,339,Wunderground v.1.15,2013-02-04 16:57:00,
2013-02-04 12:02:00,31.6,14.1,30.07,North,0,10.0,-999.0,48,0.00,,,0.00,344,Wunderground v.1.15,2013-02-04 17:02:00,
2013-02-04 12:05:00,31.6,14.1,30.07,NNE,14,10.0,10.0,48,0.00,,,0.00,332,Wunderground v.1.15,2013-02-04 17:05:00,
2013-02-04 12:07:00,31.6,14.1,30.07,NNE,23,10.0,-999.0,48,0.00,,,0.00,343,Wunderground v.1.15,2013-02-04 17:07:00,
2013-02-04 12:11:00,31.7,14.2,30.06,NNW,348,9.0,9.0,48,0.00,,,0.00,367,Wunderground v.1.15,2013-02-04 17:11:00,
2013-02-04 12:12:00,31.7,14.2,30.06,North,0,8.0,-999.0,48,0.00,,,0.00,342,Wunderground v.1.15,2013-02-04 17:12:00,
2013-02-04 12:17:00,32.0,14.5,30.07,North,0,7.0,-999.0,48,0.00,,,0.00,373,Wunderground v.1.15,2013-02-04 17:17:00,
2013-02-04 12:20:00,32.2,14.7,30.06,NE,41,7.0,10.0,48,0.00,,,0.00,373,Wunderground v.1.15,2013-02-04 17:20:00,
2013-02-04 12:22:00,32.2,14.7,30.06,NNE,23,8.0,-999.0,48,0.00,,,0.00,375,Wunderground v.1.15,2013-02-04 17:22:00,
2013-02-04 12:25:00,32.2,14.7,30.06,NE,44,8.0,10.0,48,0.00,,,0.00,390,Wunderground v.1.15,2013-02-04 17:25:00,
2013-02-04 12:27:00,32.2,14.7,30.06,NE,45,8.0,-999.0,48,0.00,,,0.00,387,Wunderground v.1.15,2013-02-04 17:27:00,
2013-02-04 12:31:00,32.5,15.0,30.05,NNE,29,8.0,9.0,48,0.00,,,0.00,380,Wunderground v.1.15,2013-02-04 17:31:00,
2013-02-04 12:32:00,32.5,15.0,30.05,NE,45,8.0,-999.0,48,0.00,,,0.00,385,Wunderground v.1.15,2013-02-04 17:32:00,
2013-02-04 12:37:00,32.4,14.9,30.05,NE,45,8.0,-999.0,48,0.00,,,0.00,396,Wunderground v.1.15,2013-02-04 17:37:00,
2013-02-04 12:41:00,32.9,15.3,30.05,NE,34,8.0,8.0,48,0.00,,,0.00,348,Wunderground v.1.15,2013-02-04 17:41:00,
2013-02-04 12:42:00,32.9,15.3,30.05,NNE,23,7.0,-999.0,48,0.00,,,0.00,371,Wunderground v.1.15,2013-02-04 17:42:00,
2013-02-04 12:47:00,33.1,15.0,30.05,NNE,23,7.0,-999.0,47,0.00,,,0.00,359,Wunderground v.1.15,2013-02-04 17:47:00,
2013-02-04 12:51:00,33.0,14.9,30.04,NNE,24,7.0,7.0,47,0.00,,,0.00,366,Wunderground v.1.15,2013-02-04 17:51:00,
2013-02-04 12:52:00,33.0,14.9,30.05,NNE,23,7.0,-999.0,47,0.00,,,0.00,379,Wunderground v.1.15,2013-02-04 17:52:00,
2013-02-04 12:57:00,33.1,15.0,30.04,NNE,23,8.0,-999.0,47,0.00,,,0.00,371,Wunderground v.1.15,2013-02-04 17:57:00,
2013-02-04 13:00:00,33.3,15.2,30.04,NNW,347,7.0,11.0,47,0.00,,,0.00,359,Wunderground v.1.15,2013-02-04 18:00:00,
2013-02-04 13:02:00,33.3,15.2,30.04,NE,45,5.0,-999.0,47,0.00,,,0.00,369,Wunderground v.1.15,2013-02-04 18:02:00,
2013-02-04 13:07:00,33.5,15.9,30.03,NNE,23,7.0,-999.0,48,0.00,,,0.00,354,Wunderground v.1.15,2013-02-04 18:07:00,
2013-02-04 13:11:00,33.7,15.1,30.04,NNW,340,8.0,11.0,46,0.00,,,0.00,348,Wunderground v.1.15,2013-02-04 18:11:00,
2013-02-04 13:12:00,33.7,15.1,30.03,North,0,9.0,-999.0,46,0.00,,,0.00,366,Wunderground v.1.15,2013-02-04 18:12:00,
2013-02-04 13:17:00,33.8,15.7,30.03,North,0,8.0,-999.0,47,0.00,,,0.00,394,Wunderground v.1.15,2013-02-04 18:17:00,
2013-02-04 13:20:00,34.0,15.4,30.03,North,350,8.0,10.0,46,0.00,,,0.00,420,Wunderground v.1.15,2013-02-04 18:20:00,
2013-02-04 13:22:00,34.1,15.5,30.03,NNE,23,8.0,-999.0,46,0.00,,,0.00,394,Wunderground v.1.15,2013-02-04 18:22:00,
2013-02-04 13:27:00,34.1,15.5,30.03,North,0,10.0,-999.0,46,0.00,,,0.00,447,Wunderground v.1.15,2013-02-04 18:27:00,
2013-02-04 13:30:00,34.1,15.5,30.03,NNE,32,10.0,11.0,46,0.00,,,0.00,422,Wunderground v.1.15,2013-02-04 18:30:00,
2013-02-04 13:32:00,34.1,15.5,30.03,North,0,9.0,-999.0,46,0.00,,,0.00,436,Wunderground v.1.15,2013-02-04 18:32:00,
2013-02-04 13:36:00,34.1,15.5,30.02,NNE,28,9.0,11.0,46,0.00,,,0.00,418,Wunderground v.1.15,2013-02-04 18:36:00,
2013-02-04 13:37:00,34.1,15.5,30.02,NNE,23,10.0,-999.0,46,0.00,,,0.00,419,Wunderground v.1.15,2013-02-04 18:37:00,
2013-02-04 13:42:00,34.4,15.7,30.02,NNE,23,8.0,-999.0,46,0.00,,,0.00,412,Wunderground v.1.15,2013-02-04 18:42:00,
2013-02-04 13:46:00,34.4,15.7,30.02,NNE,19,10.0,16.0,46,0.00,,,0.00,431,Wunderground v.1.15,2013-02-04 18:46:00,
2013-02-04 13:47:00,34.4,15.7,30.02,North,0,11.0,-999.0,46,0.00,,,0.00,429,Wunderground v.1.15,2013-02-04 18:47:00,
2013-02-04 13:52:00,34.6,15.9,30.02,NNE,23,10.0,-999.0,46,0.00,,,0.00,401,Wunderground v.1.15,2013-02-04 18:52:00,
2013-02-04 13:56:00,34.6,15.9,30.02,NNE,13,10.0,11.0,46,0.00,,,0.00,385,Wunderground v.1.15,2013-02-04 18:56:00,
2013-02-04 13:57:00,34.6,15.9,30.02,NNE,23,10.0,-999.0,46,0.00,,,0.00,374,Wunderground v.1.15,2013-02-04 18:57:00,
2013-02-04 14:02:00,34.7,16.0,30.01,NNE,23,8.0,-999.0,46,0.00,,,0.00,394,Wunderground v.1.15,2013-02-04 19:02:00,
2013-02-04 14:06:00,34.8,16.1,30.01,NNW,342,8.0,16.0,46,0.00,,,0.00,390,Wunderground v.1.15,2013-02-04 19:06:00,
2013-02-04 14:07:00,34.8,16.1,30.01,NNE,23,8.0,-999.0,46,0.00,,,0.00,388,Wunderground v.1.15,2013-02-04 19:07:00,
2013-02-04 14:12:00,34.8,16.1,30.01,NNW,338,10.0,-999.0,46,0.00,,,0.00,375,Wunderground v.1.15,2013-02-04 19:12:00,
2013-02-04 14:15:00,34.6,15.9,30.01,North,5,9.0,10.0,46,0.00,,,0.00,362,Wunderground v.1.15,2013-02-04 19:15:00,
2013-02-04 14:17:00,34.6,15.9,30.01,NNW,338,9.0,-999.0,46,0.00,,,0.00,356,Wunderground v.1.15,2013-02-04 19:17:00,
2013-02-04 14:21:00,34.7,16.0,30.00,North,355,9.0,9.0,46,0.00,,,0.00,313,Wunderground v.1.15,2013-02-04 19:21:00,
2013-02-04 14:22:00,34.7,16.0,30.00,North,0,10.0,-999.0,46,0.00,,,0.00,335,Wunderground v.1.15,2013-02-04 19:22:00,
2013-02-04 14:27:00,34.8,16.1,30.00,North,0,10.0,-999.0,46,0.00,,,0.00,310,Wunderground v.1.15,2013-02-04 19:27:00,
2013-02-04 14:31:00,35.0,16.3,30.01,North,355,10.0,10.0,46,0.00,,,0.00,299,Wunderground v.1.15,2013-02-04 19:31:00,
2013-02-04 14:32:00,35.0,16.3,30.01,NNW,338,10.0,-999.0,46,0.00,,,0.00,296,Wunderground v.1.15,2013-02-04 19:32:00,
2013-02-04 14:37:00,35.2,17.4,30.01,North,0,9.0,-999.0,48,0.00,,,0.00,283,Wunderground v.1.15,2013-02-04 19:37:00,
2013-02-04 14:41:00,35.0,15.8,30.01,NNW,348,10.0,10.0,45,0.00,,,0.00,257,Wunderground v.1.15,2013-02-04 19:41:00,
2013-02-04 14:42:00,35.0,15.8,30.01,NNW,338,10.0,-999.0,45,0.00,,,0.00,265,Wunderground v.1.15,2013-02-04 19:42:00,
2013-02-04 14:47:00,35.1,16.4,30.01,North,0,9.0,-999.0,46,0.00,,,0.00,247,Wunderground v.1.15,2013-02-04 19:47:00,
2013-02-04 14:51:00,35.2,16.0,30.01,NNE,14,9.0,9.0,45,0.00,,,0.00,190,Wunderground v.1.15,2013-02-04 19:51:00,
2013-02-04 14:52:00,35.2,16.0,30.01,North,0,9.0,-999.0,45,0.00,,,0.00,205,Wunderground v.1.15,2013-02-04 19:52:00,
2013-02-04 14:57:00,35.1,16.4,30.01,North,0,7.0,-999.0,46,0.00,,,0.00,177,Wunderground v.1.15,2013-02-04 19:57:00,
2013-02-04 15:01:00,35.1,16.9,30.02,NNW,337,8.0,9.0,47,0.00,,,0.00,141,Wunderground v.1.15,2013-02-04 20:01:00,
2013-02-04 15:02:00,35.1,16.9,30.02,North,0,9.0,-999.0,47,0.00,,,0.00,148,Wunderground v.1.15,2013-02-04 20:02:00,
2013-02-04 15:07:00,35.0,16.3,30.02,North,0,10.0,-999.0,46,0.00,,,0.00,144,Wunderground v.1.15,2013-02-04 20:07:00,
2013-02-04 15:10:00,35.0,16.3,30.02,NNE,12,10.0,10.0,46,0.00,,,0.00,160,Wunderground v.1.15,2013-02-04 20:10:00,
2013-02-04 15:12:00,35.0,16.3,30.02,North,0,9.0,-999.0,46,0.00,,,0.00,151,Wunderground v.1.15,2013-02-04 20:12:00,
2013-02-04 15:16:00,34.9,16.2,30.02,North,5,11.0,11.0,46,0.00,,,0.00,171,Wunderground v.1.15,2013-02-04 20:16:00,
2013-02-04 15:17:00,34.9,16.2,30.02,North,0,12.0,-999.0,46,0.00,,,0.00,166,Wunderground v.1.15,2013-02-04 20:17:00,
2013-02-04 15:22:00,34.8,16.1,30.02,North,0,11.0,-999.0,46,0.00,,,0.00,167,Wunderground v.1.15,2013-02-04 20:22:00,
2013-02-04 15:25:00,34.8,16.6,30.02,NNE,19,10.0,12.0,47,0.00,,,0.00,123,Wunderground v.1.15,2013-02-04 20:25:00,
2013-02-04 15:27:00,34.8,16.6,30.02,North,0,9.0,-999.0,47,0.00,,,0.00,132,Wunderground v.1.15,2013-02-04 20:27:00,
2013-02-04 15:30:00,34.8,16.6,30.02,NNE,26,8.0,9.0,47,0.00,,,0.00,111,Wunderground v.1.15,2013-02-04 20:30:00,
2013-02-04 15:32:00,34.8,16.6,30.02,North,0,8.0,-999.0,47,0.00,,,0.00,118,Wunderground v.1.15,2013-02-04 20:32:00,
2013-02-04 15:36:00,34.7,16.5,30.02,North,355,9.0,9.0,47,0.00,,,0.00,95,Wunderground v.1.15,2013-02-04 20:36:00,
2013-02-04 15:37:00,34.7,16.5,30.02,North,0,10.0,-999.0,47,0.00,,,0.00,103,Wunderground v.1.15,2013-02-04 20:37:00,
2013-02-04 15:42:00,34.7,17.0,30.02,North,0,8.0,-999.0,48,0.00,,,0.00,94,Wunderground v.1.15,2013-02-04 20:42:00,
2013-02-04 15:46:00,34.7,17.0,30.02,NNW,334,7.0,9.0,48,0.00,,,0.00,98,Wunderground v.1.15,2013-02-04 20:46:00,
2013-02-04 15:47:00,34.7,17.0,30.02,NNW,338,7.0,-999.0,48,0.00,,,0.00,98,Wunderground v.1.15,2013-02-04 20:47:00,
2013-02-04 15:52:00,34.8,17.1,30.02,NNW,338,5.0,-999.0,48,0.00,,,0.00,101,Wunderground v.1.15,2013-02-04 20:52:00,
2013-02-04 15:56:00,34.8,17.6,30.01,North,350,5.0,6.0,49,0.00,,,0.00,116,Wunderground v.1.15,2013-02-04 20:56:00,
2013-02-04 15:57:00,34.8,17.6,30.01,NNW,338,5.0,-999.0,49,0.00,,,0.00,113,Wunderground v.1.15,2013-02-04 20:57:00,
2013-02-04 16:02:00,34.9,17.2,30.02,NNW,338,7.0,-999.0,48,0.00,,,0.00,114,Wunderground v.1.15,2013-02-04 21:02:00,
2013-02-04 16:06:00,34.9,17.2,30.01,NW,318,8.0,10.0,48,0.00,,,0.00,95,Wunderground v.1.15,2013-02-04 21:06:00,
2013-02-04 16:07:00,34.8,17.1,30.01,NNW,338,7.0,-999.0,48,0.00,,,0.00,103,Wunderground v.1.15,2013-02-04 21:07:00,
2013-02-04 16:12:00,34.9,17.7,30.01,NNW,338,6.0,-999.0,49,0.00,,,0.00,91,Wunderground v.1.15,2013-02-04 21:12:00,
2013-02-04 16:16:00,34.9,17.7,30.02,NNW,343,6.0,7.0,49,0.00,,,0.00,86,Wunderground v.1.15,2013-02-04 21:16:00,
2013-02-04 16:17:00,34.9,17.7,30.02,NNW,338,7.0,-999.0,49,0.00,,,0.00,86,Wunderground v.1.15,2013-02-04 21:17:00,
2013-02-04 16:22:00,34.9,17.7,30.01,NW,315,4.0,-999.0,49,0.00,,,0.00,93,Wunderground v.1.15,2013-02-04 21:22:00,
2013-02-04 16:26:00,35.0,18.2,30.01,WNW,283,4.0,6.0,50,0.00,,,0.00,86,Wunderground v.1.15,2013-02-04 21:26:00,
2013-02-04 16:27:00,35.0,18.2,30.01,NW,315,3.0,-999.0,50,0.00,,,0.00,91,Wunderground v.1.15,2013-02-04 21:27:00,
2013-02-04 16:31:00,35.1,17.8,30.01,NNW,338,4.0,5.0,49,0.00,,,0.00,72,Wunderground v.1.15,2013-02-04 21:31:00,
2013-02-04 16:32:00,35.1,17.8,30.01,NNW,338,5.0,-999.0,49,0.00,,,0.00,85,Wunderground v.1.15,2013-02-04 21:32:00,
2013-02-04 16:37:00,35.1,17.8,30.01,NNW,338,5.0,-999.0,49,0.00,,,0.00,63,Wunderground v.1.15,2013-02-04 21:37:00,
2013-02-04 16:41:00,35.0,18.2,30.01,North,355,5.0,6.0,50,0.00,,,0.00,58,Wunderground v.1.15,2013-02-04 21:41:00,
2013-02-04 16:42:00,35.0,18.2,30.01,NNW,338,4.0,-999.0,50,0.00,,,0.00,59,Wunderground v.1.15,2013-02-04 21:42:00,
2013-02-04 16:47:00,34.9,17.7,30.01,North,0,8.0,-999.0,49,0.00,,,0.00,55,Wunderground v.1.15,2013-02-04 21:47:00,
2013-02-04 16:51:00,34.7,17.9,30.00,North,355,7.0,7.0,50,0.00,,,0.00,49,Wunderground v.1.15,2013-02-04 21:51:00,
2013-02-04 16:52:00,34.7,17.9,30.01,North,0,6.0,-999.0,50,0.00,,,0.00,48,Wunderground v.1.15,2013-02-04 21:52:00,
2013-02-04 16:57:00,34.6,17.8,30.00,North,0,6.0,-999.0,50,0.00,,,0.00,42,Wunderground v.1.15,2013-02-04 21:57:00,
2013-02-04 17:00:00,34.4,17.7,30.01,North,360,6.0,13.0,50,0.00,,,0.00,23,Wunderground v.1.15,2013-02-04 22:00:00,
2013-02-04 17:02:00,34.4,17.7,30.01,NNW,338,6.0,-999.0,50,0.00,,,0.00,28,Wunderground v.1.15,2013-02-04 22:02:00,
2013-02-04 17:06:00,34.2,17.5,30.01,NNW,348,7.0,13.0,50,0.00,,,0.00,18,Wunderground v.1.15,2013-02-04 22:06:00,
2013-02-04 17:07:00,34.3,17.6,30.01,NNW,338,9.0,-999.0,50,0.00,,,0.00,19,Wunderground v.1.15,2013-02-04 22:07:00,
2013-02-04 17:12:00,34.1,17.8,30.01,NNW,338,7.0,-999.0,51,0.00,,,0.00,16,Wunderground v.1.15,2013-02-04 22:12:00,
2013-02-04 17:16:00,33.8,17.6,30.01,NNW,327,7.0,8.0,51,0.00,,,0.00,9,Wunderground v.1.15,2013-02-04 22:16:00,
2013-02-04 17:17:00,33.8,17.6,30.01,NNW,338,6.0,-999.0,51,0.00,,,0.00,12,Wunderground v.1.15,2013-02-04 22:17:00,
2013-02-04 17:22:00,33.6,17.8,30.01,NNW,338,5.0,-999.0,52,0.00,,,0.00,7,Wunderground v.1.15,2013-02-04 22:22:00,
2013-02-04 17:26:00,33.4,18.1,30.01,NNW,331,5.0,5.0,53,0.00,,,0.00,0,Wunderground v.1.15,2013-02-04 22:26:00,
2013-02-04 17:27:00,33.4,17.6,30.01,NNW,338,5.0,-999.0,52,0.00,,,0.00,2,Wunderground v.1.15,2013-02-04 22:27:00,
2013-02-04 17:32:00,33.3,18.0,30.01,NNW,338,4.0,-999.0,53,0.00,,,0.00,0,Wunderground v.1.15,2013-02-04 22:32:00,
2013-02-04 17:36:00,33.1,18.2,30.01,NNW,331,4.0,6.0,54,0.00,,,0.00,0,Wunderground v.1.15,2013-02-04 22:36:00,
2013-02-04 17:37:00,33.1,18.2,30.01,NNW,338,4.0,-999.0,54,0.00,,,0.00,0,Wunderground v.1.15,2013-02-04 22:37:00,
2013-02-04 17:42:00,32.9,18.1,30.01,NNW,338,4.0,-999.0,54,0.00,,,0.00,0,Wunderground v.1.15,2013-02-04 22:42:00,
2013-02-04 17:45:00,32.7,18.3,30.01,NNW,331,3.0,4.0,55,0.00,,,0.00,0,Wunderground v.1.15,2013-02-04 22:45:00,
2013-02-04 17:47:00,32.8,18.4,30.01,NNW,338,2.0,-999.0,55,0.00,,,0.00,0,Wunderground v.1.15,2013-02-04 22:47:00,
2013-02-04 17:51:00,32.5,18.1,30.01,NNW,331,2.0,2.0,55,0.00,,,0.00,0,Wunderground v.1.15,2013-02-04 22:51:00,
2013-02-04 17:52:00,32.6,18.2,30.01,NNW,338,1.0,-999.0,55,0.00,,,0.00,0,Wunderground v.1.15,2013-02-04 22:52:00,
2013-02-04 17:57:00,32.5,18.5,30.01,NNW,338,1.0,-999.0,56,0.00,,,0.00,0,Wunderground v.1.15,2013-02-04 22:57:00,
2013-02-04 18:01:00,32.3,18.3,30.02,NNW,331,1.0,3.0,56,0.00,,,0.00,0,Wunderground v.1.15,2013-02-04 23:01:00,
2013-02-04 18:02:00,32.3,18.3,30.02,NNW,338,1.0,-999.0,56,0.00,,,0.00,0,Wunderground v.1.15,2013-02-04 23:02:00,
2013-02-04 18:07:00,32.1,18.2,30.02,NNW,338,1.0,-999.0,56,0.00,,,0.00,0,Wunderground v.1.15,2013-02-04 23:07:00,
2013-02-04 18:10:00,32.0,20.1,30.02,NNW,331,1.0,1.0,61,0.00,,,0.00,0,Wunderground v.1.15,2013-02-04 23:10:00,
2013-02-04 18:12:00,32.1,20.2,30.02,NNW,338,0.0,-999.0,61,0.00,,,0.00,0,Wunderground v.1.15,2013-02-04 23:12:00,
2013-02-04 18:16:00,32.0,18.5,30.01,NNW,331,0.0,1.0,57,0.00,,,0.00,0,Wunderground v.1.15,2013-02-04 23:16:00,
2013-02-04 18:17:00,32.0,18.5,30.02,NNW,338,0.0,-999.0,57,0.00,,,0.00,0,Wunderground v.1.15,2013-02-04 23:17:00,
2013-02-04 18:22:00,31.9,18.4,30.01,N/A,-737280,0.0,-999.0,57,0.00,,,0.00,0,Wunderground v.1.15,2013-02-04 23:22:00,
2013-02-04 18:25:00,31.7,18.6,30.02,NNW,331,0.0,0.0,58,0.00,,,0.00,0,Wunderground v.1.15,2013-02-04 23:25:00,
2013-02-04 18:27:00,31.7,18.6,30.02,NNW,338,0.0,-999.0,58,0.00,,,0.00,0,Wunderground v.1.15,2013-02-04 23:27:00,
2013-02-04 18:30:00,31.6,18.5,30.02,NNW,331,0.0,0.0,58,0.00,,,0.00,0,Wunderground v.1.15,2013-02-04 23:30:00,
2013-02-04 18:32:00,31.6,18.5,30.02,NNW,338,0.0,-999.0,58,0.00,,,0.00,0,Wunderground v.1.15,2013-02-04 23:32:00,
2013-02-04 18:36:00,31.8,18.7,30.01,NNW,331,0.0,0.0,58,0.00,,,0.00,0,Wunderground v.1.15,2013-02-04 23:36:00,
2013-02-04 18:37:00,31.8,18.7,30.01,NNW,338,0.0,-999.0,58,0.00,,,0.00,0,Wunderground v.1.15,2013-02-04 23:37:00,
2013-02-04 18:42:00,31.9,18.8,30.01,NNW,338,1.0,-999.0,58,0.00,,,0.00,0,Wunderground v.1.15,2013-02-04 23:42:00,
2013-02-04 18:46:00,31.9,18.8,30.02,NNW,331,0.0,1.0,58,0.00,,,0.00,0,Wunderground v.1.15,2013-02-04 23:46:00,
2013-02-04 18:47:00,31.9,18.8,30.01,NNW,338,0.0,-999.0,58,0.00,,,0.00,0,Wunderground v.1.15,2013-02-04 23:47:00,
2013-02-04 18:52:00,31.8,18.7,30.01,N/A,-737280,0.0,-999.0,58,0.00,,,0.00,0,Wunderground v.1.15,2013-02-04 23:52:00,
2013-02-04 18:55:00,32.0,18.9,30.01,NNW,331,0.0,0.0,58,0.00,,,0.00,0,Wunderground v.1.15,2013-02-04 23:55:00,
2013-02-04 18:57:00,32.0,18.9,30.01,NNW,338,0.0,-999.0,58,0.00,,,0.00,0,Wunderground v.1.15,2013-02-04 23:57:00,
2013-02-04 19:01:00,32.1,19.0,30.01,NNW,331,0.0,0.0,58,0.00,,,0.00,0,Wunderground v.1.15,2013-02-05 00:01:00,
2013-02-04 19:02:00,32.1,19.0,30.01,NNW,338,0.0,-999.0,58,0.00,,,0.00,0,Wunderground v.1.15,2013-02-05 00:02:00,
2013-02-04 19:07:00,32.3,19.2,30.01,N/A,-737280,0.0,-999.0,58,0.00,,,0.00,0,Wunderground v.1.15,2013-02-05 00:07:00,
2013-02-04 19:11:00,32.4,19.3,30.02,NNW,331,0.0,0.0,58,0.00,,,0.00,0,Wunderground v.1.15,2013-02-05 00:11:00,
2013-02-04 19:12:00,32.4,19.3,30.02,NNW,338,0.0,-999.0,58,0.00,,,0.00,0,Wunderground v.1.15,2013-02-05 00:12:00,
2013-02-04 19:17:00,32.5,19.3,30.02,NNW,338,0.0,-999.0,58,0.00,,,0.00,0,Wunderground v.1.15,2013-02-05 00:17:00,
2013-02-04 19:21:00,32.5,19.7,30.02,NNW,331,0.0,0.0,59,0.00,,,0.00,0,Wunderground v.1.15,2013-02-05 00:21:00,
2013-02-04 19:22:00,32.5,19.7,30.02,NNW,338,0.0,-999.0,59,0.00,,,0.00,0,Wunderground v.1.15,2013-02-05 00:22:00,
2013-02-04 19:27:00,32.6,19.8,30.02,NNW,338,0.0,-999.0,59,0.00,,,0.00,0,Wunderground v.1.15,2013-02-05 00:27:00,
2013-02-04 19:31:00,32.7,19.9,30.02,NNW,331,0.0,1.0,59,0.00,,,0.00,0,Wunderground v.1.15,2013-02-05 00:31:00,
2013-02-04 19:32:00,32.7,19.9,30.02,NNW,338,0.0,-999.0,59,0.00,,,0.00,0,Wunderground v.1.15,2013-02-05 00:32:00,
2013-02-04 19:37:00,32.8,20.0,30.02,NNW,338,0.0,-999.0,59,0.00,,,0.00,0,Wunderground v.1.15,2013-02-05 00:37:00,
2013-02-04 19:41:00,33.0,20.6,30.01,NNW,331,1.0,1.0,60,0.00,,,0.00,0,Wunderground v.1.15,2013-02-05 00:41:00,
2013-02-04 19:42:00,33.0,20.6,30.01,NNW,338,1.0,-999.0,60,0.00,,,0.00,0,Wunderground v.1.15,2013-02-05 00:42:00,
2013-02-04 19:46:00,33.1,20.7,30.01,NNW,331,2.0,2.0,60,0.00,,,0.00,0,Wunderground v.1.15,2013-02-05 00:46:00,
2013-02-04 19:47:00,33.1,20.7,30.01,NNW,338,2.0,-999.0,60,0.00,,,0.00,0,Wunderground v.1.15,2013-02-05 00:47:00,
2013-02-04 19:52:00,33.2,20.8,30.02,NNW,338,0.0,-999.0,60,0.00,,,0.00,0,Wunderground v.1.15,2013-02-05 00:52:00,
2013-02-04 19:56:00,33.3,20.9,30.01,NNW,331,0.0,1.0,60,0.00,,,0.00,0,Wunderground v.1.15,2013-02-05 00:56:00,
2013-02-04 19:57:00,33.3,20.9,30.01,NNW,338,0.0,-999.0,60,0.00,,,0.00,0,Wunderground v.1.15,2013-02-05 00:57:00,
2013-02-04 20:02:00,33.3,20.9,30.01,N/A,-737280,0.0,-999.0,60,0.00,,,0.00,0,Wunderground v.1.15,2013-02-05 01:02:00,
2013-02-04 20:06:00,33.3,20.9,30.01,NNW,331,0.0,0.0,60,0.00,,,0.00,0,Wunderground v.1.15,2013-02-05 01:06:00,
2013-02-04 20:07:00,33.3,20.9,30.01,N/A,-737280,0.0,-999.0,60,0.00,,,0.00,0,Wunderground v.1.15,2013-02-05 01:07:00,
2013-02-04 20:12:00,33.4,21.0,30.01,NNW,338,0.0,-999.0,60,0.00,,,0.00,0,Wunderground v.1.15,2013-02-05 01:12:00,
2013-02-04 20:16:00,33.5,21.1,30.01,NNW,331,0.0,0.0,60,0.00,,,0.00,0,Wunderground v.1.15,2013-02-05 01:16:00,
2013-02-04 20:17:00,33.5,21.1,30.01,NNW,338,0.0,-999.0,60,0.00,,,0.00,0,Wunderground v.1.15,2013-02-05 01:17:00,
2013-02-04 20:22:00,33.5,21.5,30.01,NNW,338,0.0,-999.0,61,0.00,,,0.00,0,Wunderground v.1.15,2013-02-05 01:22:00,
2013-02-04 20:26:00,33.7,21.7,30.01,NNW,331,0.0,0.0,61,0.00,,,0.00,0,Wunderground v.1.15,2013-02-05 01:26:00,
2013-02-04 20:27:00,33.7,21.7,30.00,NNW,338,1.0,-999.0,61,0.00,,,0.00,0,Wunderground v.1.15,2013-02-05 01:27:00,
2013-02-04 20:31:00,33.8,21.8,30.01,NNW,331,1.0,2.0,61,0.00,,,0.00,0,Wunderground v.1.15,2013-02-05 01:31:00,
2013-02-04 20:32:00,33.8,21.8,30.01,NNW,338,1.0,-999.0,61,0.00,,,0.00,0,Wunderground v.1.15,2013-02-05 01:32:00,
2013-02-04 20:37:00,33.8,21.8,30.01,NNW,338,2.0,-999.0,61,0.00,,,0.00,0,Wunderground v.1.15,2013-02-05 01:37:00,
2013-02-04 20:40:00,33.9,21.9,30.00,NNW,331,2.0,2.0,61,0.00,,,0.00,0,Wunderground v.1.15,2013-02-05 01:40:00,
2013-02-04 20:42:00,33.9,21.9,30.01,NNW,338,2.0,-999.0,61,0.00,,,0.00,0,Wunderground v.1.15,2013-02-05 01:42:00,
2013-02-04 20:45:00,33.9,21.9,30.01,NNW,331,2.0,4.0,61,0.00,,,0.00,0,Wunderground v.1.15,2013-02-05 01:45:00,
2013-02-04 20:47:00,33.9,21.9,30.01,NNW,338,2.0,-999.0,61,0.00,,,0.00,0,Wunderground v.1.15,2013-02-05 01:47:00,
2013-02-04 20:51:00,34.0,22.0,30.00,NNW,331,2.0,3.0,61,0.00,,,0.00,0,Wunderground v.1.15,2013-02-05 01:51:00,
2013-02-04 20:52:00,34.0,22.0,30.00,NNW,338,2.0,-999.0,61,0.00,,,0.00,0,Wunderground v.1.15,2013-02-05 01:52:00,
2013-02-04 20:57:00,34.0,21.6,30.00,NNW,338,2.0,-999.0,60,0.00,,,0.00,0,Wunderground v.1.15,2013-02-05 01:57:00,
2013-02-04 21:01:00,34.0,21.6,30.00,NNW,331,2.0,3.0,60,0.00,,,0.00,0,Wunderground v.1.15,2013-02-05 02:01:00,
2013-02-04 21:02:00,34.1,21.7,30.00,NNW,338,2.0,-999.0,60,0.00,,,0.00,0,Wunderground v.1.15,2013-02-05 02:02:00,
2013-02-04 21:07:00,34.1,21.7,30.00,NNW,338,2.0,-999.0,60,0.00,,,0.00,0,Wunderground v.1.15,2013-02-05 02:07:00,
2013-02-04 21:11:00,34.1,21.7,30.00,NNW,331,2.0,2.0,60,0.00,,,0.00,0,Wunderground v.1.15,2013-02-05 02:11:00,
2013-02-04 21:12:00,34.1,21.7,30.00,NNW,338,2.0,-999.0,60,0.00,,,0.00,0,Wunderground v.1.15,2013-02-05 02:12:00,
2013-02-04 21:17:00,34.2,21.7,29.99,NNW,338,2.0,-999.0,60,0.00,,,0.00,0,Wunderground v.1.15,2013-02-05 02:17:00,
2013-02-04 21:21:00,34.2,21.7,29.99,NNW,331,3.0,3.0,60,0.00,,,0.00,0,Wunderground v.1.15,2013-02-05 02:21:00,
2013-02-04 21:22:00,34.2,21.7,29.99,NNW,338,3.0,-999.0,60,0.00,,,0.00,0,Wunderground v.1.15,2013-02-05 02:22:00,
2013-02-04 21:27:00,34.3,21.8,29.99,NNW,338,4.0,-999.0,60,0.00,,,0.00,0,Wunderground v.1.15,2013-02-05 02:27:00,
2013-02-04 21:31:00,34.3,21.4,29.98,NW,326,4.0,5.0,59,0.00,,,0.00,0,Wunderground v.1.15,2013-02-05 02:31:00,
2013-02-04 21:32:00,34.3,21.4,29.98,NNW,338,5.0,-999.0,59,0.00,,,0.00,0,Wunderground v.1.15,2013-02-05 02:32:00,
2013-02-04 21:37:00,34.4,21.5,29.99,NW,315,4.0,-999.0,59,0.00,,,0.00,0,Wunderground v.1.15,2013-02-05 02:37:00,
2013-02-04 21:41:00,34.5,21.6,29.98,NW,325,4.0,6.0,59,0.00,,,0.00,0,Wunderground v.1.15,2013-02-05 02:41:00,
2013-02-04 21:42:00,34.5,21.6,29.98,NW,315,4.0,-999.0,59,0.00,,,0.00,0,Wunderground v.1.15,2013-02-05 02:42:00,
2013-02-04 21:47:00,34.7,21.8,29.98,NW,315,6.0,-999.0,59,0.00,,,0.00,0,Wunderground v.1.15,2013-02-05 02:47:00,
2013-02-04 21:50:00,34.9,22.0,29.98,WNW,300,6.0,6.0,59,0.00,,,0.00,0,Wunderground v.1.15,2013-02-05 02:50:00,
2013-02-04 21:52:00,34.9,22.0,29.98,NW,315,6.0,-999.0,59,0.00,,,0.00,0,Wunderground v.1.15,2013-02-05 02:52:00,
2013-02-04 21:56:00,35.1,22.6,29.98,WNW,302,5.0,6.0,60,0.00,,,0.00,0,Wunderground v.1.15,2013-02-05 02:56:00,
2013-02-04 21:57:00,35.1,22.6,29.98,WNW,293,4.0,-999.0,60,0.00,,,0.00,0,Wunderground v.1.15,2013-02-05 02:57:00,
2013-02-04 22:02:00,35.3,23.2,29.98,WNW,293,5.0,-999.0,61,0.00,,,0.00,0,Wunderground v.1.15,2013-02-05 03:02:00,
2013-02-04 22:06:00,35.5,24.1,29.98,WNW,302,4.0,5.0,63,0.00,,,0.00,0,Wunderground v.1.15,2013-02-05 03:06:00,
2013-02-04 22:07:00,35.5,24.1,29.98,WNW,293,4.0,-999.0,63,0.00,,,0.00,0,Wunderground v.1.15,2013-02-05 03:07:00,
2013-02-04 22:12:00,35.6,25.0,29.98,WNW,293,5.0,-999.0,65,0.00,,,0.00,0,Wunderground v.1.15,2013-02-05 03:12:00,
2013-02-04 22:16:00,35.7,25.4,29.98,WNW,302,5.0,5.0,66,0.00,,,0.00,0,Wunderground v.1.15,2013-02-05 03:16:00,
2013-02-04 22:17:00,35.7,25.4,29.98,WNW,293,4.0,-999.0,66,0.00,,,0.00,0,Wunderground v.1.15,2013-02-05 03:17:00,
2013-02-04 22:22:00,35.9,26.0,29.98,WNW,293,4.0,-999.0,67,0.00,,,0.00,0,Wunderground v.1.15,2013-02-05 03:22:00,
2013-02-04 22:26:00,36.0,26.5,29.97,WNW,302,4.0,5.0,68,0.00,,,0.00,0,Wunderground v.1.15,2013-02-05 03:26:00,
2013-02-04 22:27:00,36.0,26.5,29.97,WNW,293,4.0,-999.0,68,0.00,,,0.00,0,Wunderground v.1.15,2013-02-05 03:27:00,
2013-02-04 22:32:00,36.1,26.9,29.97,WNW,293,5.0,-999.0,69,0.00,,,0.00,0,Wunderground v.1.15,2013-02-05 03:32:00,
2013-02-04 22:36:00,36.2,27.4,29.97,WNW,301,6.0,6.0,70,0.00,,,0.00,0,Wunderground v.1.15,2013-02-05 03:36:00,
2013-02-04 22:37:00,36.2,27.4,29.96,WNW,293,6.0,-999.0,70,0.00,,,0.00,0,Wunderground v.1.15,2013-02-05 03:37:00,
2013-02-04 22:41:00,36.2,27.4,29.96,WNW,301,5.0,5.0,70,0.00,,,0.00,0,Wunderground v.1.15,2013-02-05 03:41:00,
2013-02-04 22:42:00,36.2,27.4,29.96,WNW,293,5.0,-999.0,70,0.00,,,0.00,0,Wunderground v.1.15,2013-02-05 03:42:00,
2013-02-04 22:47:00,36.2,27.7,29.97,WNW,293,4.0,-999.0,71,0.00,,,0.00,0,Wunderground v.1.15,2013-02-05 03:47:00,
2013-02-04 22:51:00,36.3,27.8,29.97,WNW,300,4.0,4.0,71,0.00,,,0.00,0,Wunderground v.1.15,2013-02-05 03:51:00,
2013-02-04 22:52:00,36.2,27.7,29.97,WNW,293,4.0,-999.0,71,0.00,,,0.00,0,Wunderground v.1.15,2013-02-05 03:52:00,
2013-02-04 22:57:00,36.3,28.1,29.97,WNW,293,3.0,-999.0,72,0.00,,,0.00,0,Wunderground v.1.15,2013-02-05 03:57:00,
2013-02-04 23:01:00,36.3,28.1,29.97,WNW,300,4.0,6.0,72,0.00,,,0.00,0,Wunderground v.1.15,2013-02-05 04:01:00,
2013-02-04 23:02:00,36.3,28.1,29.97,WNW,293,4.0,-999.0,72,0.00,,,0.00,0,Wunderground v.1.15,2013-02-05 04:02:00,
2013-02-04 23:07:00,36.4,28.2,29.97,WNW,293,5.0,-999.0,72,0.00,,,0.00,0,Wunderground v.1.15,2013-02-05 04:07:00,
2013-02-04 23:11:00,36.4,28.2,29.96,WNW,301,5.0,5.0,72,0.00,,,0.00,0,Wunderground v.1.15,2013-02-05 04:11:00,
2013-02-04 23:12:00,36.4,28.2,29.96,WNW,293,5.0,-999.0,72,0.00,,,0.00,0,Wunderground v.1.15,2013-02-05 04:12:00,
2013-02-04 23:17:00,36.5,28.7,29.96,WNW,293,4.0,-999.0,73,0.00,,,0.00,0,Wunderground v.1.15,2013-02-05 04:17:00,
2013-02-04 23:21:00,36.6,28.8,29.96,WNW,300,4.0,6.0,73,0.00,,,0.00,0,Wunderground v.1.15,2013-02-05 04:21:00,
2013-02-04 23:22:00,36.6,28.8,29.96,WNW,293,4.0,-999.0,73,0.00,,,0.00,0,Wunderground v.1.15,2013-02-05 04:22:00,
2013-02-04 23:26:00,36.7,28.9,29.95,WNW,300,4.0,6.0,73,0.00,,,0.00,0,Wunderground v.1.15,2013-02-05 04:26:00,
2013-02-04 23:27:00,36.6,28.8,29.95,WNW,293,4.0,-999.0,73,0.00,,,0.00,0,Wunderground v.1.15,2013-02-05 04:27:00,
2013-02-04 23:32:00,36.8,29.0,29.96,WNW,293,3.0,-999.0,73,0.00,,,0.00,0,Wunderground v.1.15,2013-02-05 04:32:00,
2013-02-04 23:35:00,36.9,29.1,29.96,NW,304,3.0,7.0,73,0.00,,,0.00,0,Wunderground v.1.15,2013-02-05 04:35:00,
2013-02-04 23:37:00,36.9,29.1,29.96,NW,315,4.0,-999.0,73,0.00,,,0.00,0,Wunderground v.1.15,2013-02-05 04:37:00,
2013-02-04 23:41:00,37.0,28.8,29.95,WNW,302,4.0,6.0,72,0.00,,,0.00,0,Wunderground v.1.15,2013-02-05 04:41:00,
2013-02-04 23:42:00,37.0,28.8,29.96,WNW,293,4.0,-999.0,72,0.00,,,0.00,0,Wunderground v.1.15,2013-02-05 04:42:00,
2013-02-04 23:46:00,37.0,28.8,29.95,WNW,302,3.0,6.0,72,0.00,,,0.00,0,Wunderground v.1.15,2013-02-05 04:46:00,
2013-02-04 23:47:00,37.0,28.8,29.95,WNW,293,3.0,-999.0,72,0.00,,,0.00,0,Wunderground v.1.15,2013-02-05 04:47:00,
2013-02-04 23:52:00,37.0,28.8,29.95,WNW,293,4.0,-999.0,72,0.00,,,0.00,0,Wunderground v.1.15,2013-02-05 04:52:00,
2013-02-04 23:56:00,37.0,28.8,29.94,WNW,302,4.0,4.0,72,0.00,,,0.00,0,Wunderground v.1.15,2013-02-05 04:56:00,
2013-02-04 23:57:00,37.0,28.8,29.95,WNW,293,4.0,-999.0,72,0.00,,,0.00,0,Wunderground v.1.15,2013-02-05 04:57:00,